Hourly Data Report for October 20, 2017

All times are specified in Local Standard Time (LST). Add 1 hour to adjust for Daylight Saving Time where and when it is observed.

OTTAWA INTL A
ONTARIO

45°19'00.000" N
75°40'00.000" W
114.90 m
6106001
71628
YOW

Download Data

Hourly Data (October 2017)
Hourly Data Report for October 20, 2017
Temp Definition
°C
Dew Point Temp Definition
°C
Rel Hum Definition
%
Wind Dir Definition
10's deg

Wind Spd Definition
km/h
Visibility Definition
km
Stn Press Definition
kPa
Hmdx Definition


Wind Chill Definition


Weather Definition


TIME
00:00 Legend Double Dagger 9.4 2.1 60 26 17 24.1 100.19     LegendNANA
01:00 Legend Double Dagger 10.9 2.5 56 27 22 24.1 100.21     Clear
02:00 Legend Double Dagger 10.0 2.8 60 27 19 24.1 100.25     LegendNANA
03:00 Legend Double Dagger 8.9 2.9 66 27 18 24.1 100.27     LegendNANA
04:00 Legend Double Dagger 6.4 2.7 77 26 14 24.1 100.39     Clear
05:00 Legend Double Dagger 5.7 2.5 80 25 13 24.1 100.47     LegendNANA
06:00 Legend Double Dagger 5.4 2.2 80 24 10 24.1 100.56     LegendNANA
07:00 Legend Double Dagger 6.5 2.8 77 25 9 24.1 100.66     Mainly Clear
08:00 Legend Double Dagger 9.6 3.4 65 28 18 24.1 100.75     LegendNANA
09:00 Legend Double Dagger 11.1 3.0 57 29 20 24.1 100.80     LegendNANA
10:00 Legend Double Dagger 12.8 3.6 53 27 19 24.1 100.78     Clear
11:00 Legend Double Dagger 14.7 2.0 42 27 12 24.1 100.77     LegendNANA
12:00 Legend Double Dagger 15.9 2.7 41 25 16 24.1 100.74     LegendNANA
13:00 Legend Double Dagger 16.9 2.2 37 26 21 24.1 100.68     Clear
14:00 Legend Double Dagger 18.1 1.0 31 27 17 24.1 100.66     LegendNANA
15:00 Legend Double Dagger 18.8 2.0 32 26 17 24.1 100.60     LegendNANA
16:00 Legend Double Dagger 18.5 2.2 33 22 18 24.1 100.55     Clear
17:00 Legend Double Dagger 16.0 3.4 43 18 10 24.1 100.58     LegendNANA
18:00 Legend Double Dagger 14.2 3.7 49 19 11 24.1 100.59     LegendNANA
19:00 Legend Double Dagger 13.1 6.2 63 20 15 24.1 100.60     Clear
20:00 Legend Double Dagger 12.0 7.0 71 20 11 24.1 100.60     LegendNANA
21:00 Legend Double Dagger 11.9 7.5 74 21 15 24.1 100.58     LegendNANA
22:00 Legend Double Dagger 10.4 6.6 77 22 8 24.1 100.64     Clear
23:00 Legend Double Dagger 10.0 5.9 76 21 8 24.1 100.69     LegendNANA

Notes on Data Quality.

Legend

  • E = Estimated
  • M = Missing
  • NA = Not Available
  • ‡ = Partner data that is not subject to review by the National Climate Archives
Date modified: